Regional Weather Roundup
Issued by NWS Portland, ME

Home | Current Version | Previous Version | Text Only | Print | Product List | Glossary On
Versions: 1 2 3 4 5 6 7 8 9 10 11 12 13 14 15 16 17 18 19 20 21 22 23 24 25 26 27 28 29 30 31 32 33 34 35 36 37 38 39 40 41 42 43 44 45 46 47 48 49 50
000
ASUS41 KGYX 191310
RWRGYX
WEATHER ROUNDUP FOR MAINE AND NEW HAMPSHIRE
NATIONAL WEATHER SERVICE GRAY ME
900 AM EDT SUN APR 19 2015

MEZ002-005-006-010-012-015-018-020-021-024-026-027-029-191400-
MAINE

CITY           SKY/WX    TMP DP  RH WIND       PRES   REMARKS
PORTLAND       MOSUNNY   50  32  50 N12       30.26R
SANFORD        SUNNY     45  30  57 N12       30.26S
BAR HARBOR     CLOUDY    41  36  81 NW3       30.23S
WISCASSET      MOSUNNY   45  35  68 VRB5      30.26S
ROCKLAND       PTSUNNY   45  34  65 N7        30.23S
FRYEBURG       SUNNY     46  30  53 N8        30.25R
LEWISTONAUBURN MOSUNNY   45  30  57 N13       30.25R
AUGUSTA        SUNNY     42  31  64 N7        30.25S
WATERVILLE     CLOUDY    41  28  60 N9        30.23R
BANGOR         PTSUNNY   43  31  62 N5        30.24R
GREENVILLE       N/A     34  28  79 NW8       30.18R
MILLINOCKET    SUNNY     42  27  55 CALM      30.22S
HOULTON        SUNNY     40  20  44 NE7       30.18S
PRESQUE ISLE   SUNNY     37  25  60 N7        30.19S
FRENCHVILLE    SUNNY     38  26  62 NW13      30.16S
CARIBOU        SUNNY     39  27  62 N5        30.17S
$$

NHZ002-005-008-009-011-012-014-191400-
NEW HAMPSHIRE

CITY           SKY/WX    TMP DP  RH WIND       PRES   REMARKS
PORTSMOUTH     MOSUNNY   48  35  61 N9        30.24S
ROCHESTER      SUNNY     46  35  65 VRB3      30.24S
NASHUA         SUNNY     49  30  48 NW12      30.25S
MANCHESTER     SUNNY     49  29  46 N10       30.23S
CONCORD        SUNNY     48  31  51 NW13      30.24F
LACONIA        SUNNY     46  28  49 N6        30.22F
PLYMOUTH       FAIR      46  32  59 CALM      30.25F
BERLIN         PTSUNNY   40  28  62 NW7       30.25R
WHITEFIELD     MOSUNNY   40  27  59 VRB3      30.26R
JAFFREY        SUNNY     45  28  51 CALM      30.24F
KEENE          SUNNY     46  28  49 N12       30.27S
LEBANON        PTSUNNY   44  29  55 N9        30.27S
MT WASHINGTON  PTSUNNY   18  12  79 N31G39      N/A  WCI  -2
$$

VTZ005-007-008-191400-
VERMONT

CITY           SKY/WX    TMP DP  RH WIND       PRES   REMARKS
ST JOHNSBURY     N/A     39  26  59 MISG      30.28R
MONTPELIER     PTSUNNY   40  26  57 N9        30.31R
BURLINGTON     MOSUNNY   42  30  62 NW10      30.31S
$$

MAZ007-012-024-CTZ003-RIZ002-NYZ038-NYZ072-191400-
SOUTHERN NEW ENGLAND AND NY

CITY           SKY/WX    TMP DP  RH WIND       PRES   REMARKS
BOSTON         SUNNY     48  34  58 NE8       30.26S
WORCESTER      SUNNY     46  28  49 VRB6      30.23R
NANTUCKET      SUNNY     48  37  65 NE20G31   30.22R
PROVIDENCE     SUNNY     51  32  48 NE13      30.25R
HARTFORD       MOSUNNY   50  29  44 N12       30.27R
ALBANY         MOSUNNY   46  30  53 N9        30.30R
NEW YORK CITY  PTSUNNY   53  30  41 NE13      30.25R
$$

ANZ081-ANZ082-ANZ150-NHZ014-MEZ023>029-191400-
COASTAL MARINE OBSERVATIONS

STATION/POSITION TIME  TEMP    WIND        PRES    WAVE
                       AIR SEA DIR/SP/G            HT/PER
                 (UTC) (F)     (DEG/KT/KT) (MB)    (FT/S)
MOUNT DESERT ROC 1300   37     360/ 10/ 10 1024.0R
MATINICUS ROCK   1200   39     360/  9/ 10 1023.4R
WELLS            1200   43 40   10/  8/ 10 1023.6R
ISLE OF SHOALS   1200   41     310/  5/  6 1023.8R
CASHES LEDGE BUO 1250   41 40              1023.3R   4/ 5
$$

.............KEY..............
   WCI - WIND CHILL
   TC  - TEMPERATURE IN CELSIUS
   VSB - VISIBILITY IN MILES
   HX  - HEAT INDEX
   FAIR- INDICATES FEW OR NO CLOUDS BELOW 12,000 FT, WITH NO
         SIGNIFICANT WEATHER AND/OR OBSTRUCTIONS TO VISIBILITY.





USA.gov is the U.S. government's official web portal to all federal, state and local government web resources and services.